Hauptseite
METAR-TAF:

METAR-TAF

Flughäfen :

Flughafen Kuala Lumpur

Kuala Lumpur, Malaysia

Breite: 02-44N, Länge: 101-42E, Höhe: 21 m

Beobachtung

Neuester Wetterbericht von vor 39 Minuten, um 14:30 UTC
Wind 1 kt aus unterschiedlichen Richtungen
Temperatur 28°C
Luftfeuchtigkeit 84%
Luftdruck 1009 hPa
Sichtweite 10 km oder mehr
Leicht bewölkt in der Höhe von 3000 ft

METAR: WMKK 231430Z VRB01KT 9999 FEW030 28/25 Q1009 NOSIG

Zeit: 23:09 (15:09 UTC)

Prognose

Neuester Wetterbericht von vor 4 Stunden und 9 Minuten, um 11:00 UTC
Gültige Prognose vom 23 um 12 UTC bis 24 um 18 UTC
Wind 3 kt aus unterschiedlichen Richtungen
Sichtweite 10 km oder mehr
Leicht bewölkt in der Höhe von 3000 ft

TAF: WMKK 231100Z 2312/2418 VRB03KT 9999 FEW030

Wetterbeobachtungen und Prognosen von mehr als 4000 Flughäfen (METAR und TAF Bericht).

Die verfügbaren Stationen werden durch gelbe und rote Markierungen auf der Karte dargestellt.

Führen Sie die Maus auf sie, um den Namen der Station zu sehen.

Darauf klicken, um die Beobachtung von Wetterbeobachtungen und Prognosen zu sehen.

Um die Karte zu ändern : klicken Sie auf den grünen Tasten mit einem schwarzen Kreuz Zum Vergrößern, auf den grünen Button mit einem Gedankenstrich zu verkleinern, oder auf die grünen Pfeile für benachbarte Karten.


METAR-TAF: